Retour au catalogue

STARLINK-33866

ActifCommunicationsVLEO
NORAD 63653·PAYLOAD·🇺🇸 United States

Lancé Apr 25, 2025 depuis Cape Canaveral Space Force Station

Loading…

Prochains Passages (prochaines 24 heures)

TLE

FraisSource: CelesTrak SupGP

Époque: Sep 14, 2026, 22:40 UTC

1 63653C 25083V   26257.94493056 -.00000221  00000+0 -79905-5 0  2571
2 63653  43.0038  16.6058 0001428 269.1241 266.9524 15.27575521    14

Suivez STARLINK-33866 en temps réel avec AllMySat

Download on the App Store